sat.trackr.live / text

‹ back to catalog

O/OREOS (USA 219)

NORAD 37224 · 2010-062C

PAYLOAD ACTIVE UNKNOWN

§ Identity

Operator
Country
US
Launch date
2010-11-20
Launch site
KODAK
Launch vehicle
Mass (kg)
RCS (m²)

Purposes: comms

External: N2YO · Heavens-Above · Gunter

§ Orbital elements

Epoch: 2026-09-18T14:36:22.334976Z

Period
96.38 min
Inclination
71.9686°
Eccentricity
0.0016487
Mean motion
14.94047704 rev/d
Perigee alt
573.8 km
Apogee alt
596.8 km
Semi-major
6,963.5 km
B*
1.5374e-4
RAAN
228.6645°
Arg perigee
250.1883°
Mean anomaly
109.7510°
Rev number
13,059

§ Raw data

O/OREOS (USA 219)1 37224U 10062C   26261.60859184  .00001582  00000+0  15374-3 0  99932 37224  71.9686 228.6645 0016487 250.1883 109.7510 14.94047704130594

JSON: /api/v1/satellites/37224 · /tle

For live sub-satellite position, see the globe view (requires WebGL).

§ Visibility from observer

Set your observer location to see the next 7 days of passes ≥ 10°. The values pass through the URL so the page stays shareable.

No JS? Fill the form by hand. The geolocation button needs JavaScript.

§ Radio — SatNOGS DB

ModeDescriptionDownlinkUplink
AFSK AFSK Beacon 437.305 MHz

1 transmitter · refreshed weekly from db.satnogs.org